カタログに戻る

CZ-6A DEB

運用中PO
NORAD 61487·DEBRIS·🇨🇳 China

打ち上げ Aug 6, 2024 から Taiyuan Satellite Launch Center

Loading…

次のパス (今後24時間)

TLE

最新Source: Space-Track

元期: Sep 14, 2026, 10:43 UTC

1 61487U 24140AAV 26257.44698320  .00001728  00000-0  69006-3 0  9997
2 61487  89.0047 264.5769 0033439 260.8311  98.9100 14.27805343104614

AllMySatでCZ-6A DEBをリアルタイム追跡

Download on the App Store